2015-05-03 00:04:39 r, 18.08m,0000000005Hz,0000094107c,0000000.204s, 024.1C,00002191
2015-05-03 00:14:39 r, 18.10m,0000000005Hz,0000094998c,0000000.206s, 023.8C,00002191
2015-05-03 00:24:39 r, 18.11m,0000000005Hz,0000096721c,0000000.210s, 023.5C,00002191
2015-05-03 00:34:39 r, 18.06m,0000000005Hz,0000091230c,0000000.198s, 023.2C,00002191
2015-05-03 00:44:40 r, 18.05m,0000000006Hz,0000090209c,0000000.196s, 022.8C,00002191
2015-05-03 00:54:39 r, 18.07m,0000000005Hz,0000092388c,0000000.200s, 022.5C,00002191
2015-05-03 01:04:39 r, 18.07m,0000000005Hz,0000091800c,0000000.199s, 022.2C,00002191
2015-05-03 01:14:39 r, 18.08m,0000000005Hz,0000093343c,0000000.203s, 021.9C,00002191
2015-05-03 01:24:39 r, 18.14m,0000000005Hz,0000098681c,0000000.214s, 021.5C,00002191
2015-05-03 01:34:39 r, 18.20m,0000000004Hz,0000104058c,0000000.226s, 021.5C,00002191
2015-05-03 01:44:39 r, 18.29m,0000000004Hz,0000113106c,0000000.245s, 021.2C,00002191
2015-05-03 01:54:39 r, 18.31m,0000000004Hz,0000114377c,0000000.248s, 021.2C,00002191
2015-05-03 02:04:39 r, 18.31m,0000000004Hz,0000115131c,0000000.250s, 020.9C,00002191
2015-05-03 02:14:39 r, 18.30m,0000000004Hz,0000114316c,0000000.248s, 020.9C,00002191
2015-05-03 02:24:39 r, 18.33m,0000000004Hz,0000117267c,0000000.254s, 020.6C,00002191
2015-05-03 02:34:39 r, 18.34m,0000000004Hz,0000118790c,0000000.258s, 020.3C,00002191
2015-05-03 02:44:41 r, 18.36m,0000000003Hz,0000120958c,0000000.262s, 019.9C,00002191
2015-05-03 02:54:39 r, 18.41m,0000000003Hz,0000126017c,0000000.273s, 019.6C,00002191
2015-05-03 03:04:39 r, 18.47m,0000000004Hz,0000134303c,0000000.291s, 019.3C,00002191
2015-05-03 03:14:40 r, 18.51m,0000000004Hz,0000138402c,0000000.300s, 018.6C,00002191
2015-05-03 03:24:39 r, 18.58m,0000000003Hz,0000147467c,0000000.320s, 018.0C,00002191
2015-05-03 03:34:39 r, 18.62m,0000000003Hz,0000153691c,0000000.334s, 017.7C,00002191
2015-05-03 03:44:39 r, 18.70m,0000000003Hz,0000165136c,0000000.358s, 017.0C,00002191
2015-05-03 03:54:39 r, 18.79m,0000000002Hz,0000179472c,0000000.389s, 016.7C,00002191
2015-05-03 04:04:39 r, 18.84m,0000000002Hz,0000188041c,0000000.408s, 016.1C,00002191
2015-05-03 04:14:40 r, 18.90m,0000000002Hz,0000199445c,0000000.433s, 015.7C,00002191
2015-05-03 04:24:39 r, 18.90m,0000000002Hz,0000199677c,0000000.433s, 015.4C,00002191
2015-05-03 04:34:39 r, 18.81m,0000000003Hz,0000182532c,0000000.396s, 015.7C,00002191
2015-05-03 04:44:39 r, 18.48m,0000000003Hz,0000136079c,0000000.295s, 015.7C,00002191
2015-05-03 04:54:39 r, 17.79m,0000000007Hz,0000072120c,0000000.157s, 015.4C,00002191
2015-05-03 05:04:39 r, 16.75m,0000000017Hz,0000027423c,0000000.060s, 015.1C,00002191
2015-05-03 05:14:39 r, 15.27m,0000000064Hz,0000007070c,0000000.015s, 015.1C,00002191
2015-05-03 05:24:39 r, 13.49m,0000000341Hz,0000000000c,0000000.000s, 015.1C,00002191
2015-05-03 05:34:39 r, 11.70m,0000001775Hz,0000000000c,0000000.000s, 014.8C,00002191
2015-05-03 05:44:39 r, 10.01m,0000008421Hz,0000000000c,0000000.000s, 014.8C,00002191
2015-05-03 05:54:39 r, 08.58m,0000031167Hz,0000000000c,0000000.000s, 014.8C,00002191
2015-05-03 06:04:39 r, 07.41m,0000091789Hz,0000000000c,0000000.000s, 014.8C,00002191
2015-05-03 06:14:39 r, 06.89m,0000148677Hz,0000000000c,0000000.000s, 014.8C,00002191
2015-05-03 06:24:39 r, 06.27m,0000262448Hz,0000000000c,0000000.000s, 015.4C,00002191
2015-05-03 06:34:39 r, 05.86m,0000384911Hz,0000000000c,0000000.000s, 015.7C,00002191
2015-05-03 06:44:41 r, 00.00m,0000522872Hz,0000000000c,0000000.000s, 016.1C,00002191
2015-05-03 06:54:39 r, 00.00m,0000595440Hz,0000000000c,0000000.000s, 017.0C,00002191
2015-05-03 07:04:39 r, 00.00m,0000595230Hz,0000000000c,0000000.000s, 018.3C,00002191
2015-05-03 07:14:41 r, 00.00m,0000595267Hz,0000000000c,0000000.000s, 019.3C,00002191
2015-05-03 07:24:39 r, 00.00m,0000595220Hz,0000000000c,0000000.000s, 020.3C,00002191
2015-05-03 07:34:39 r, 00.00m,0000595192Hz,0000000000c,0000000.000s, 021.9C,00002191
2015-05-03 07:44:40 r, 00.00m,0000595061Hz,0000000000c,0000000.000s, 022.8C,00002191
2015-05-03 07:54:39 r, 00.00m,0000594916Hz,0000000000c,0000000.000s, 024.1C,00002191
2015-05-03 08:04:39 r, 00.00m,0000594842Hz,0000000000c,0000000.000s, 025.4C,00002191
2015-05-03 08:14:40 r, 00.00m,0000594672Hz,0000000000c,0000000.000s, 026.7C,00002191
2015-05-03 08:24:39 r, 00.00m,0000594520Hz,0000000000c,0000000.000s, 028.3C,00002191
2015-05-03 08:34:39 r, 00.00m,0000594397Hz,0000000000c,0000000.000s, 029.6C,00002191
2015-05-03 08:44:40 r, 00.00m,0000594216Hz,0000000000c,0000000.000s, 030.6C,00002191
2015-05-03 08:54:39 r, 00.00m,0000594295Hz,0000000000c,0000000.000s, 030.9C,00002191
2015-05-03 09:04:39 r, 00.00m,0000594170Hz,0000000000c,0000000.000s, 030.9C,00002191
2015-05-03 09:14:39 r, 00.00m,0000594070Hz,0000000000c,0000000.000s, 031.5C,00002191
2015-05-03 09:24:39 r, 00.00m,0000593957Hz,0000000000c,0000000.000s, 032.8C,00002191
2015-05-03 09:34:39 r, 00.00m,0000593876Hz,0000000000c,0000000.000s, 033.8C,00002191
2015-05-03 09:44:39 r, 00.00m,0000593763Hz,0000000000c,0000000.000s, 034.4C,00002191
2015-05-03 09:54:39 r, 00.00m,0000593656Hz,0000000000c,0000000.000s, 035.1C,00002191
2015-05-03 10:04:39 r, 00.00m,0000593582Hz,0000000000c,0000000.000s, 035.7C,00002191
2015-05-03 10:14:39 r, 00.00m,0000593416Hz,0000000000c,0000000.000s, 036.4C,00002191
2015-05-03 10:24:39 r, 00.00m,0000593326Hz,0000000000c,0000000.000s, 037.0C,00002191
2015-05-03 10:34:39 r, 00.00m,0000593267Hz,0000000000c,0000000.000s, 037.3C,00002191
2015-05-03 10:44:41 r, 00.00m,0000593222Hz,0000000000c,0000000.000s, 038.0C,00002191
2015-05-03 10:54:39 r, 00.00m,0000593057Hz,0000000000c,0000000.000s, 038.3C,00002191
2015-05-03 11:04:39 r, 00.00m,0000593104Hz,0000000000c,0000000.000s, 039.0C,00002191
2015-05-03 11:14:40 r, 00.00m,0000593030Hz,0000000000c,0000000.000s, 039.3C,00002191
2015-05-03 11:24:39 r, 00.00m,0000592895Hz,0000000000c,0000000.000s, 039.6C,00002191
2015-05-03 11:34:39 r, 00.00m,0000592741Hz,0000000000c,0000000.000s, 040.6C,00002191
2015-05-03 11:44:42 r, 00.00m,0000592888Hz,0000000000c,0000000.000s, 039.9C,00002191
2015-05-03 11:54:39 r, 00.00m,0000592788Hz,0000000000c,0000000.000s, 040.6C,00002191
2015-05-03 12:04:40 r, 00.00m,0000593021Hz,0000000000c,0000000.000s, 039.3C,00002191
2015-05-03 12:14:41 r, 00.00m,0000592969Hz,0000000000c,0000000.000s, 039.0C,00002191
2015-05-03 12:24:39 r, 00.00m,0000592796Hz,0000000000c,0000000.000s, 040.2C,00002191
2015-05-03 12:34:39 r, 00.00m,0000592800Hz,0000000000c,0000000.000s, 040.6C,00002191
2015-05-03 12:44:39 r, 00.00m,0000592677Hz,0000000000c,0000000.000s, 041.5C,00002191
2015-05-03 12:54:39 r, 00.00m,0000592453Hz,0000000000c,0000000.000s, 042.8C,00002191
2015-05-03 13:04:39 r, 00.00m,0000592984Hz,0000000000c,0000000.000s, 039.9C,00002191
2015-05-03 13:14:39 r, 00.00m,0000592871Hz,0000000000c,0000000.000s, 040.2C,00002191
2015-05-03 13:24:39 r, 00.00m,0000592516Hz,0000000000c,0000000.000s, 042.5C,00002191
2015-05-03 13:34:39 r, 00.00m,0000592382Hz,0000000000c,0000000.000s, 043.1C,00002191
2015-05-03 13:44:39 r, 00.00m,0000592386Hz,0000000000c,0000000.000s, 043.5C,00002191
2015-05-03 13:54:39 r, 00.00m,0000592327Hz,0000000000c,0000000.000s, 044.1C,00002191
2015-05-03 14:04:39 r, 00.00m,0000592411Hz,0000000000c,0000000.000s, 043.1C,00002191
2015-05-03 14:14:39 r, 00.00m,0000592664Hz,0000000000c,0000000.000s, 041.2C,00002191
2015-05-03 14:24:39 r, 00.00m,0000592684Hz,0000000000c,0000000.000s, 041.2C,00002191
2015-05-03 14:34:40 r, 00.00m,0000592598Hz,0000000000c,0000000.000s, 040.9C,00002191
2015-05-03 14:44:39 r, 00.00m,0000592361Hz,0000000000c,0000000.000s, 042.8C,00002191
2015-05-03 14:54:39 r, 00.00m,0000592486Hz,0000000000c,0000000.000s, 042.8C,00002191
2015-05-03 15:04:39 r, 00.00m,0000592376Hz,0000000000c,0000000.000s, 043.5C,00002191
2015-05-03 15:14:39 r, 00.00m,0000592255Hz,0000000000c,0000000.000s, 043.5C,00002191
2015-05-03 15:24:40 r, 00.00m,0000592458Hz,0000000000c,0000000.000s, 042.8C,00002191
2015-05-03 15:34:39 r, 00.00m,0000592834Hz,0000000000c,0000000.000s, 040.2C,00002191
2015-05-03 15:44:39 r, 00.00m,0000592664Hz,0000000000c,0000000.000s, 040.6C,00002191
2015-05-03 15:54:39 r, 00.00m,0000592594Hz,0000000000c,0000000.000s, 041.2C,00002191
2015-05-03 16:04:39 r, 00.00m,0000592771Hz,0000000000c,0000000.000s, 040.9C,00002191
2015-05-03 16:14:40 r, 00.00m,0000592676Hz,0000000000c,0000000.000s, 041.2C,00002191
2015-05-03 16:24:39 r, 00.00m,0000592898Hz,0000000000c,0000000.000s, 039.9C,00002191
2015-05-03 16:34:39 r, 00.00m,0000593036Hz,0000000000c,0000000.000s, 039.3C,00002191
2015-05-03 16:44:39 r, 00.00m,0000593053Hz,0000000000c,0000000.000s, 039.0C,00002191
2015-05-03 16:54:39 r, 00.00m,0000593086Hz,0000000000c,0000000.000s, 039.3C,00002191
2015-05-03 17:04:40 r, 00.00m,0000593110Hz,0000000000c,0000000.000s, 038.6C,00002191
2015-05-03 17:14:40 r, 00.00m,0000593056Hz,0000000000c,0000000.000s, 038.6C,00002191
2015-05-03 17:24:39 r, 00.00m,0000593254Hz,0000000000c,0000000.000s, 038.0C,00002191
2015-05-03 17:34:39 r, 00.00m,0000593253Hz,0000000000c,0000000.000s, 037.3C,00002191
2015-05-03 17:44:40 r, 00.00m,0000593370Hz,0000000000c,0000000.000s, 036.7C,00002191
2015-05-03 17:54:40 r, 00.00m,0000593415Hz,0000000000c,0000000.000s, 036.4C,00002191
2015-05-03 18:04:40 r, 00.00m,0000593543Hz,0000000000c,0000000.000s, 035.7C,00002191
2015-05-03 18:14:41 r, 00.00m,0000593592Hz,0000000000c,0000000.000s, 035.7C,00002191
2015-05-03 18:24:39 r, 00.00m,0000593681Hz,0000000000c,0000000.000s, 035.1C,00002191
2015-05-03 18:34:40 r, 00.00m,0000593749Hz,0000000000c,0000000.000s, 034.1C,00002191
2015-05-03 18:44:40 r, 00.00m,0000593804Hz,0000000000c,0000000.000s, 033.5C,00002191
2015-05-03 18:54:40 r, 00.00m,0000593866Hz,0000000000c,0000000.000s, 032.8C,00002191
2015-05-03 19:04:39 r, 00.00m,0000593922Hz,0000000000c,0000000.000s, 032.2C,00002191
2015-05-03 19:14:39 r, 00.00m,0000594039Hz,0000000000c,0000000.000s, 031.2C,00002191
2015-05-03 19:24:40 r, 00.00m,0000594111Hz,0000000000c,0000000.000s, 030.9C,00002191
2015-05-03 19:34:39 r, 00.00m,0000594164Hz,0000000000c,0000000.000s, 030.2C,00002191
2015-05-03 19:44:40 r, 00.00m,0000594305Hz,0000000000c,0000000.000s, 029.9C,00002191
2015-05-03 19:54:40 r, 00.00m,0000591245Hz,0000000000c,0000000.000s, 029.3C,00002191
2015-05-03 20:04:39 r, 00.00m,0000495470Hz,0000000000c,0000000.000s, 028.6C,00002191
2015-05-03 20:14:39 r, 05.84m,0000389783Hz,0000000000c,0000000.000s, 028.0C,00002191
2015-05-03 20:24:40 r, 06.18m,0000286400Hz,0000000000c,0000000.000s, 027.0C,00002191
2015-05-03 20:34:39 r, 06.65m,0000184694Hz,0000000000c,0000000.000s, 026.4C,00002191
2015-05-03 20:44:39 r, 07.34m,0000098244Hz,0000000000c,0000000.000s, 025.4C,00002191
2015-05-03 20:54:40 r, 08.31m,0000040396Hz,0000000000c,0000000.000s, 024.4C,00002191
2015-05-03 21:04:40 r, 09.64m,0000011832Hz,0000000000c,0000000.000s, 023.8C,00002191
2015-05-03 21:14:40 r, 11.27m,0000002629Hz,0000000000c,0000000.000s, 023.2C,00002191
2015-05-03 21:24:41 r, 13.04m,0000000513Hz,0000000000c,0000000.000s, 022.8C,00002191
2015-05-03 21:34:39 r, 14.86m,0000000097Hz,0000004810c,0000000.010s, 022.2C,00002191
2015-05-03 21:44:40 r, 16.36m,0000000024Hz,0000019206c,0000000.042s, 021.9C,00002191
2015-05-03 21:54:41 r, 17.42m,0000000009Hz,0000050618c,0000000.110s, 021.9C,00002191
2015-05-03 22:04:39 r, 18.08m,0000000005Hz,0000093436c,0000000.203s, 021.5C,00002191
2015-05-03 22:14:39 r, 18.40m,0000000004Hz,0000124827c,0000000.271s, 021.2C,00002191
2015-05-03 22:24:39 r, 18.49m,0000000003Hz,0000136942c,0000000.297s, 020.9C,00002191
2015-05-03 22:34:39 r, 18.51m,0000000004Hz,0000139529c,0000000.303s, 020.6C,00002191
2015-05-03 22:44:40 r, 18.50m,0000000003Hz,0000137330c,0000000.298s, 020.3C,00002191
2015-05-03 22:54:41 r, 18.46m,0000000004Hz,0000132380c,0000000.287s, 020.3C,00002191
2015-05-03 23:04:39 r, 18.42m,0000000003Hz,0000127736c,0000000.277s, 019.9C,00002191
2015-05-03 23:14:39 r, 18.38m,0000000004Hz,0000122942c,0000000.267s, 019.9C,00002191
2015-05-03 23:24:39 r, 18.34m,0000000004Hz,0000119196c,0000000.259s, 019.6C,00002191
2015-05-03 23:34:40 r, 18.32m,0000000004Hz,0000117026c,0000000.254s, 019.6C,00002191
2015-05-03 23:44:39 r, 18.30m,0000000004Hz,0000114300c,0000000.248s, 019.6C,00002191
2015-05-03 23:54:40 r, 18.28m,0000000004Hz,0000112386c,0000000.244s, 019.3C,00002191
